This demonstration page uses our WeatherBlox Daily Observations layout. Learn more.

Left ArrowRight Arrow

Hourly Observations for August 21, 2021

Temp ( °F °C ) Dew Point ( °F °C ) Humidity (%) Winds ( mph kmh ) Pressure ( in mb ) Visibility ( mi km ) Precip ( " mm )
12:59 am 00:59 Partly Cloudy 74 23.3 70 21.1 88 88 WNW 7 11 29.91 1013 10 16 0.00 0.00
1:59 am 01:59 Partly Cloudy 73 22.8 70 21.1 90 90 Calm 29.89 1012 10 16 0.00 0.00
2:59 am 02:59 Partly Cloudy 74 23.3 70 21.1 88 88 Calm 29.88 1012 10 16 0.00 0.00
3:59 am 03:59 Partly Cloudy 77 25 72 22.2 85 85 NNW 5 7 29.87 1012 10 16 0.00 0.00
4:06 am 04:06 Mostly Cloudy 76 24.4 72 22.2 88 88 N 3 6 29.87 1011 10 16 0.00 0.00
4:14 am 04:14 Mostly Cloudy 76 24.4 72 22.2 88 88 N 3 6 29.87 1011 10 16 0.00 0.00
4:59 am 04:59 Mostly Cloudy 76 24.4 73 22.8 91 91 Calm 29.88 1012 10 16 0.00 0.00
5:59 am 05:59 Mostly Cloudy 75 23.9 72 22.2 90 90 Calm 29.87 1012 7 11 0.00 0.00
6:31 am 06:31 Mostly Cloudy 75 23.9 72 22.2 90 90 Calm 29.87 1011 8 13 0.00 0.00
6:59 am 06:59 Mostly Cloudy 76 24.4 73 22.8 91 91 Calm 29.88 1012 8 13 0.00 0.00
7:59 am 07:59 Mostly Cloudy 81 27.2 74 23.3 79 79 N 5 7 29.88 1012 10 16 0.00 0.00
8:59 am 08:59 Mostly Cloudy 81 27.2 74 23.3 79 79 N 7 11 29.86 1011 10 16 0.00 0.00
9:51 am 09:51 Mostly Cloudy 80 26.7 74 23.3 82 82 NNE 9 15 29.87 1011 10 16 0.00 0.00
9:59 am 09:59 Mostly Cloudy 80 26.7 74 23.3 82 82 NNE 9 15 29.87 1012 10 16 0.00 0.00
10:30 am 10:30 Mostly Cloudy 81 27.2 73 22.8 77 77 NNE 7 11 29.88 1012 10 16 0.00 0.00
10:59 am 10:59 Mostly Cloudy 80 26.7 74 23.3 82 82 ENE 7 11 29.86 1011 9 14 0.00 0.00
11:59 am 11:59 Cloudy 81 27.2 74 23.3 79 79 NE 9 15 29.88 1012 9 14 0.00 0.00
12:42 pm 12:42 Partly Cloudy 81 27.2 73 22.8 77 77 NE 10 17 29.87 1011 10 16 0.00 0.00
12:59 pm 12:59 Cloudy 83 28.3 74 23.3 74 74 NE 9 15 29.87 1012 10 16 0.00 0.00
1:52 pm 13:52 Cloudy with Thunderstorms 80 26.7 73 22.8 79 79 NNE 8 13 29.88 1012 9 14 0.02 0.51
1:59 pm 13:59 Cloudy with Thunderstorms 81 27.2 73 22.8 77 77 N 5 7 29.88 1012 9 14 0.02 0.51
2:40 pm 14:40 Cloudy with Light Rain 81 27.2 74 23.3 79 79 NNE 6 9 29.88 1012 4 6 0.01 0.25
2:59 pm 14:59 Cloudy 82 27.8 74 23.3 77 77 NNE 7 11 29.86 1011 10 16 0.01 0.25
3:59 pm 15:59 Mostly Cloudy 81 27.2 72 22.2 74 74 NE 6 9 29.85 1011 10 16 0.00 0.00
4:59 pm 16:59 Mostly Cloudy 84 28.9 73 22.8 70 70 NE 8 13 29.85 1011 10 16 0.00 0.00
5:59 pm 17:59 Mostly Cloudy 82 27.8 72 22.2 72 72 NNW 3 6 29.85 1011 10 16 0.00 0.00
6:59 pm 18:59 Mostly Cloudy 81 27.2 73 22.8 77 77 ESE 3 6 29.85 1011 10 16 0.00 0.00
7:59 pm 19:59 Partly Cloudy 79 26.1 73 22.8 82 82 E 3 6 29.87 1012 9 14 0.00 0.00
8:59 pm 20:59 Partly Cloudy 77 25 72 22.2 85 85 SSE 5 7 29.88 1012 10 16 0.00 0.00
9:59 pm 21:59 Partly Cloudy 77 25 72 22.2 85 85 ESE 5 7 29.89 1012 10 16 0.00 0.00
10:59 pm 22:59 Partly Cloudy 76 24.4 72 22.2 88 88 Calm 29.90 1012 9 14 0.00 0.00
11:59 pm 23:59 Partly Cloudy 75 23.9 72 22.2 90 90 SE 3 6 29.92 1013 8 13 0.00 0.00

Powered by AerisWeather